Location: Nasgenstadt
(48.2786°N, 9.7553°E)
Time: 00:24:40
(UTC+02:00)

Envisat - Visible Passes

Search period start: 24 May 2018 00:00
Search period end: 03 June 2018 00:00
Orbit: 764 x 766 km, 98.2° (Epoch: 23 May)

Date Brightness Start Highest point End Pass type
(mag) Time Alt. Az. Time Alt. Az. Time Alt. Az.
25 May 5.5 21:47:28 10° SW 21:51:15 21° W 21:55:02 10° NW visible
27 May 5.8 22:15:07 10° WSW 22:17:10 12° W 22:19:13 10° WNW visible
30 May 5.6 22:02:53 10° SW 22:05:51 15° W 22:08:49 10° NW visible
02 Jun 5.5 21:50:59 10° SW 21:54:33 19° W 21:58:09 10° NW visible
